Вернуться в каталог

STARLINK-32205

АктивенСвязьVLEO
NORAD 60266·PAYLOAD·🇺🇸 United States

Запущен Jul 27, 2024 с Cape Canaveral Space Force Station

Loading…

Ближайшие Пролёты (ближайшие 24 часа)

TLE

СвежийSource: CelesTrak SupGP

Эпоха: Sep 14, 2026, 21:01 UTC

1 60266C 24131M   26257.87618056  .00044124  00000+0  14191-2 0  2573
2 60266  53.1588 252.6563 0001310  85.2031  89.9654 15.31676066    18

Отслеживайте STARLINK-32205 в реальном времени с AllMySat

Download on the App Store